Regional Weather Roundup
Issued by NWS

Home | Current Version | Previous Version | Graphics & Text | Print | Product List | Glossary On
Versions: 1 2 3 4 5 6 7 8 9 10 11 12 13 14 15 16 17 18 19 20 21 22 23 24 25 26 27 28 29 30 31 32 33 34 35 36 37 38 39 40 41 42 43 44 45 46 47 48 49 50
377
ASUS43 KLOT 292203
RWRIL

ILLINOIS REGIONAL WEATHER ROUNDUP
NATIONAL WEATHER SERVICE CHICAGO/ROMEOVILLE IL
500 PM CDT SAT APR 29 2017

NOTE: "FAIR" INDICATES FEW OR NO CLOUDS BELOW 12,000 FEET WITH NO
SIGNIFICANT WEATHER AND/OR OBSTRUCTIONS TO VISIBILITY.

* THESE STATIONS ARE NOT UNDER NWS QUALITY CONTROL. THEY ALSO MAY NOT
  REPORT WEATHER SUCH AS PRECIPITATION OR FOG.

ILZ001-002-007-009-015-016-024-292300-
NORTHWEST ILLINOIS

CITY           SKY/WX    TMP DP  RH WIND       PRES   REMARKS
MOLINE         TSTM      41  36  82 NE25G33   30.02F
STERLING*      LGT RAIN  39  37  92 NE21G29   30.08F FOG     WCI  29
SAVANNA*       RAIN      41  39  93 NE15G21   30.12F
$$

ILZ003-004-008-010-011-017-018-292300-
NORTH CENTRAL ILLINOIS

CITY           SKY/WX    TMP DP  RH WIND       PRES   REMARKS
ROCKFORD       TSTM      39  35  86 NE18      30.17S FOG     WCI  30
FREEPORT*      RAIN      38  37  92 NE13      30.18R WCI  31
ROCHELLE*      TSTM      38  37  96 NE25      30.12F WCI  26
DE KALB*       LGT RAIN  38  37  96 NE22      30.12F WCI  27
PERU*          TSTM      39  37  94 NE25G31   30.04R WCI  28
$$

ILZ005-006-012>014-019>023-292300-
NORTHEAST ILLINOIS

CITY           SKY/WX    TMP DP  RH WIND       PRES   REMARKS
CHICAGO-OHARE  HVY RAIN  40  37  89 N17       30.14R FOG
CHICAGO-MIDWAY RAIN      41  40  96 N18G24    30.13R FOG
AURORA         RAIN      40  38  93 N21G30    30.08F FOG
LANSING*       CLOUDY    42  41  99 NE13G23   30.08F
JOLIET*        RAIN      42  41  97 NE16G28   30.06F
WAUKEGAN       LGT RAIN  38  36  92 N14G21    30.19R FOG     WCI  30
DUPAGE AIRPORT RAIN      39  39 100 NE18      30.11F WCI  30
KANKAKEE*      CLOUDY    44  42  93 NE16G28   30.02F
WHEELING       RAIN      38  38 100 N15G21    30.17R FOG     WCI  29
MORRIS*        CLOUDY    40  39  95 NE9       30.04F
NORTHERLY ISL    N/A     41  39  93 MISG        N/A
$$

LMZ740>746-292300-
SOUTHERN LAKE MICHIGAN

STATION/POSITION SKY/WX   TEMP    WIND        PRES    VSBY  WAVE
                          AIR SEA DIR/SP/G                  HT/PER
                          (F)     (DEG/KT/KT) (MB)    (MI)  (FT/S)
SOUTHERN BUOY              40 41   10/ 21/ 25 1021.0          6/ 6
HARRISON CRIB              41      20/ 25/ 27   N/A
BURNHAM HARBOR             41     330/ 14/ 25   N/A
CALUMET HARBOR             41      10/ 19/ 25 1018.9F
BURNS HARBOR               43      40/ 19/ 22 1019.3S
MICHIGAN CITY              43      10/ 19/ 21   N/A
MICHIGAN CITY 6N           42 47                N/A           7/ 7
ST. JOSEPH                 47 49   40/ 14/ 17 1020.5F         5/ 6
$$

ILZ025>027-034>036-040-047-049-050-058-095>099-292300-
WEST-CENTRAL ILLINOIS

CITY           SKY/WX    TMP DP  RH WIND       PRES   REMARKS
QUINCY         LGT RAIN  43  42  97 NE24G33   29.85F FOG
GALESBURG*     RAIN      40  40  99 NE24G31   29.95F
MACOMB*        LGT SNOW  41  41  99 NE31G38   29.93F
JACKSONVILLE*    N/A    N/A N/A N/A MISG        N/A
PITTSFIELD*    RAIN      47  46  97 N15G22    29.85S
$$

ILZ028>032-037-038-041>044-048-051>054-059>061-292300-
CENTRAL ILLINOIS

CITY           SKY/WX    TMP DP  RH WIND       PRES   REMARKS
PONTIAC        LGT RAIN  43  43  99 NE33      29.96F
BLOOMINGTON    LGT RAIN  45  44  97 NE30G39   29.90F FOG
DECATUR        CLOUDY    56  56 100 NE23G33   29.81F FOG
PEORIA         TSTM      42  41  96 NE18G44   29.94F FOG
LACON*         TSTM      40  40  99 NE10G23   29.95F VSB 1
LINCOLN*       CLOUDY    48  48 100 NE29G36   29.80F FOG
SPRINGFIELD    LGT RAIN  50  49  96 NE31G40   29.74F FOG
TAYLORVILLE    CLOUDY    63  62  99 E24G32    29.69F FOG
$$

ILZ033-039-045-046-055>057-062-063-292300-
EAST-CENTRAL ILLINOIS

CITY           SKY/WX    TMP DP  RH WIND       PRES   REMARKS
CHAMPAIGN      FOG       55  53  93 NE23G30   29.87F VSB 1
RANTOUL*       CLOUDY    55  54  98 E31G37    29.89F FOG
MATTOON        CLOUDY    72  65  78 E13       29.83F
PARIS*         CLOUDY   N/A N/A N/A NE8       29.87F
$$

ILZ079-100>102-292300-
SOUTHWEST ILLINOIS

CITY           SKY/WX    TMP DP  RH WIND       PRES   REMARKS
ALTON          TSTM      61  61 100 SW12      29.79R
BELLEVILLE     HVY RAIN  66  66 100 SW3G28    29.81R VSB 3/4
CAHOKIA*       CLOUDY    65  62  90 SW9       29.79S FOG
$$

ILZ064>066-069>071-074>076-080>082-084>086-088>090-092>094-292300-
SOUTH-CENTRAL ILLINOIS

CITY           SKY/WX    TMP DP  RH WIND       PRES   REMARKS
CARBONDALE     CLOUDY    82  69  64 S20G31    29.79R HX  85
CAIRO*         SUNNY     85  68  58 SE16G24   29.80F HX  88
EFFINGHAM*     CLOUDY    76  69  79 E12G17    29.82R
MARION         MOSUNNY   84  70  61 S17G30    29.80F HX  88
MT. VERNON     CLOUDY    80  69  69 S12G23    29.80F HX  83
CENTRALIA*     CLOUDY    80  71  74 S16G22    29.78R HX  83
SALEM*         CLOUDY    79  70  74 SE10G17   29.79R HX  82
METROPOLIS*    MOSUNNY   86  67  53 S15G22    29.82F HX  89
$$

ILZ067-068-072-073-078-083-087-091-292300-
SOUTHEAST ILLINOIS

CITY           SKY/WX    TMP DP  RH WIND       PRES   REMARKS
LAWRENCEVILLE  CLOUDY    79  69  71 SE17      29.84F HX  81
FLORA*         CLOUDY    80  71  73 SE18G25   29.79F HX  83
FAIRFIELD*     CLOUDY    81  70  70 SE14G20   29.78F HX  84
HARRISBURG*    CLOUDY    82  71  68 SE21G31   29.81F HX  86
ROBINSON*      CLOUDY    77  68  74 SE13G20   29.84F
CARMI*         MOSUNNY   83  69  63 S20       29.82F HX  86
$$

ABBREVIATIONS USED IN REMARKS
   TC - TEMPERATURE IN CELSIUS
  WCI - WIND CHILL INDEX
   HX - HEAT INDEX
  VSB - VISIBILITY
$$





USA.gov is the U.S. government's official web portal to all federal, state and local government web resources and services.